Weather Roundup
Issued by NWS Chicago, IL

Home | Current Version | Previous Version | Graphics & Text | Print | Product List | Glossary On
Versions: 1 2 3 4 5 6 7 8 9 10 11 12 13 14 15 16 17 18 19 20 21 22 23 24 25 26 27 28 29 30 31 32 33 34 35 36 37 38 39 40 41 42 43 44 45 46 47 48 49 50
000
NZUS59 KLOT 300103
HRRLOT

CHICAGO AREA WEATHER ROUNDUP
NATIONAL WEATHER SERVICE CHICAGO/ROMEOVILLE IL
800 PM CDT WED MAR 29 2017

NOTE: "FAIR" INDICATES FEW OR NO CLOUDS BELOW 12,000 FEET WITH NO
SIGNIFICANT WEATHER AND/OR OBSTRUCTIONS TO VISIBILITY.

* THESE STATIONS ARE NOT UNDER NWS QUALITY CONTROL. THEY ALSO MAY NOT
  REPORT WEATHER SUCH AS PRECIPITATION OR FOG.

ILZ005-006-012>014-019>023-300200-
NORTHEAST ILLINOIS

CITY           SKY/WX    TMP DP  RH WIND       PRES   REMARKS
OHARE          LGT RAIN  44  37  76 NE15      30.07F
MIDWAY         LGT RAIN  45  40  82 NE13G24   30.07F
AURORA         LGT RAIN  45  38  76 NE16G26   30.05F
LANSING*       LGT RAIN  47  44  87 NE9       30.06F
JOLIET*        CLOUDY    47  43  83 E12       30.03F
WAUKEGAN       LGT RAIN  40  36  86 NE13G23   30.11F
DUPAGE AIRPORT LGT RAIN  43  40  89 NE15      30.06F
WHEELING       LGT RAIN  41  38  89 NE14G20   30.10F
MORRIS*        CLOUDY    47  41  80 E12G18    30.02R
NORTHERLY ISL    N/A     40  37  89 NE14        N/A
$$

WIZ051-052-058>065-066-070>072-300200-
SOUTHEAST WISCONSIN

CITY           SKY/WX    TMP DP  RH WIND       PRES   REMARKS
MILWAUKEE      LGT RAIN  39  34  82 NE15      30.18R
KENOSHA*       LGT RAIN  39  35  86 N18       30.13S
RACINE*        LGT RAIN  38  34  85 N15G24    30.18R
WAUKESHA       RAIN      37  30  75 NE10G17   30.19R
$$

INZ001>003-010>013-019-020-300200-
NORTHWEST INDIANA

CITY           SKY/WX    TMP DP  RH WIND       PRES   REMARKS
GARY*          LGT RAIN  50  41  71 E14       30.08R
MICHIGAN CITY* NOT AVBL
RENSSELAER*    NOT AVBL
VALPARAISO     CLOUDY    49  40  71 E17       30.06R
$$

LMZ740>746-300200-
SOUTHERN LAKE MICHIGAN

STATION/POSITION TIME  SKY/WX   TEMP WIND        PRES    VSBY
                                AIR  DIR/SP/G
                 (UTC)          (F)  (DEG/KT/KT) (MB)    (MI)
HARRISON CRIB    0040            41   50/ 15/ 16   N/A
BURNHAM HARBOR   0100            40   40/ 11/ 12   N/A
CALUMET HARBOR   0030            41   20/  9/ 11 1018.3F
BURNS HARBOR     0040            49   80/  9/ 16 1019.0R
MICHIGAN CITY    0040            50   80/ 11/ 16   N/A
$$

ABBREVIATIONS USED IN REMARKS
   TC - TEMPERATURE IN CELSIUS
  WCI - WIND CHILL INDEX
   HX - HEAT INDEX
  VSB - VISIBILITY
$$




USA.gov is the U.S. government's official web portal to all federal, state and local government web resources and services.